Find Starlink 34250

NORAD ID: 64690 Int'l Des: 2025-139 Owner: SPXS Country: US Constellation: starlink operational
LEOCIRCULAR

实时位置

正在加载3D地球...

关于 Starlink 34250

正在加载描述...

即将过境

Passes for default location (London). Set your location on the main map for personalized predictions.

高度历史

Loading altitude history...

两行轨道根数

1 64690U 25139AC 26106.96849329 .00011085 00000-0 38579-3 0 9990
2 64690 53.1591 309.3105 0001209 84.3917 275.7222 15.30203609 46147
Epoch: Apr 16, 2026 • Age: 14 hours

当前状态

高度 492.3 km
速度 7.62 km/s
星下点 -47.87°S, 150.36°W
发射日期 Jun 28, 2025
运行时间 0.8 years
类型 internet

技术详情

分类 Payload
质量 575.00 kg
干质量 530.00 kg
总质量 575.00 kg
长度 0.30 m
直径 4.10 m
跨度 29.00 m
形状 Box + pan
制造商 SPXS
平台类型 Starlink V2MO
阶段状态 In Orbit
所有者/国家 SPXS/US

Most Searched